Location: Bonny Doon Airfield
(37.0704°N, 122.1252°W)
Time: 22:53:48
(UTC-07:00)

Envisat - Pass Details

Date: 15 October 2017
Orbit: 764 x 766 km, 98.2° (Epoch: 17 October)

Event Time Altitude Azimuth Distance (km) Brightness Sun altitude
Exits shadow 20:03:28 21° 41° (NE) 1,688 4.4 -19.2°
Drops below altitude 10° 20:05:55 10° 15° (NNE) 2,306 5.4 -19.7°
Sets 20:08:36 0° 2° (N) 3,236 6.3 -20.2°
